Location: The D'Auria's Ocala Star Observatory
(29.0276°N, 82.1742°W)
Time: 01:50:53
(UTC-04:00)

Okean 3 Rocket - Visible Passes

Search period start: 01 April 2015 00:00
Search period end: 11 April 2015 00:00
Orbit: 617 x 645 km, 82.5° (Epoch: 31 March)

Date Brightness Start Highest point End Pass type
(mag) Time Alt. Az. Time Alt. Az. Time Alt. Az.
01 Apr 6.9 05:05:29 10° E 05:06:11 10° E 05:07:13 10° ENE visible
01 Apr 3.9 06:39:45 10° SSW 06:43:58 43° W 06:48:13 10° N visible
02 Apr 5.9 05:23:40 10° SE 05:27:10 24° E 05:30:48 10° NE visible
03 Apr 4.2 05:43:51 10° S 05:48:09 55° E 05:52:33 10° NNE visible
04 Apr 3.6 06:04:52 10° SSW 06:09:15 62° W 06:13:41 10° N visible
05 Apr 6.2 04:49:41 10° SE 04:52:32 17° E 04:55:34 10° NE visible
05 Apr 4.6 06:26:41 10° SW 06:30:29 27° WNW 06:34:15 10° NNW visible
06 Apr 4.9 05:11:08 21° SSE 05:13:31 39° E 05:17:42 10° NNE visible
07 Apr 3.5 05:32:57 40° S 05:34:33 88° W 05:39:04 10° N visible
08 Apr 6.5 04:17:12 12° E 04:17:54 12° E 04:19:55 10° ENE visible
08 Apr 4.1 05:54:39 32° WSW 05:55:43 37° W 05:59:53 10° NNW visible
09 Apr 5.4 04:38:48 28° E 04:38:52 28° E 04:42:44 10° NNE visible
09 Apr 5.1 06:16:15 17° W 06:17:04 17° WNW 06:19:55 10° NW visible
10 Apr 4.0 05:00:20 60° ENE 05:00:20 60° ENE 05:04:20 10° NNE visible
